THORAD AGENA D DEB, 4990

Orbit data source: Space-Track

THORAD AGENA D DEB, 4990 is space debris in SSO originally from a launch on Wed, 08 Apr 1970 UTC launched from the Air Force Western Test Range (AFWTR). Debris objects in space refer to the collection of defunct objects orbiting the Earth. Examples of debris include non-operational satellites, rocket bodies, and fragments generated from explosions, collisions, or faulty payload assembly.

Loading next visibility...
Identifier
4990, 1970-025HL
Orbit
SSO
Country
Flag of USUS
Related business
Manufacturer
Unknown
Mission
Spacecraft
Bus & Motor
Unknown
Mass
Unknown
Launch date (UTC)
1970-04-08 (56 years ago)
Launch vehicle
Unknown
Launch site
Air Force Western Test Range (AFWTR)
Object type
Payload
Rocket body
Debris
Shape & HBR
Unknown shape, 0.1 m
Radar Cross Section
Medium (>0.1 m² and <1 m²)

Expand to show TLE details & history
Last TLE update: 14 hours ago

TLE from 14 hours ago
0 THORAD AGENA D DEB
1 04990U 70025HL  26237.39032990  .00001223  00000-0  78194-3 0  9991
2 04990 100.0143  28.1071 0050845 241.4392 118.1649 14.05114438830168
Epoch: 2026-08-25T09:22Z
TLE epoch observation values (Epoch: 2026-08-25T09:22:04.503Z)
Latitude
-0.00002°
Longitude
-86.07002°
Altitude
896.546 km
Speed
7.395 km/s
True Right ascension
01h 52m 25s
True Declination
0° 00' 00"
Sunlit
Object was in full shadow at epoch
Visualization orbit readout
Latitude
Unknown
Longitude
Unknown
Altitude
Unknown
Speed
Unknown
Apparent Right ascension
Unknown
Apparent Declination
Unknown
Sunlit
N/A
Visualization observer readout
Local Sidereal Time
14:16:38
Azimuth
Unknown
Elevation
Unknown
Doppler factor
Unknown
Orbital elements
Apogee altitude
910.254 km
Perigee altitude
836.513 km
Semi-major axis
7,251.52 km
Eccentricity
0.00508
Inclination
100.0143°
RAAN
28.1071°
Arg. of periapsis
241.4392°
True anomaly
118.67701°
Mean anomaly
118.1649°
Eccentric anomaly
118.42111°
Mean motion
3.51479 °/min
Orbital period
102.42 mins
BSTAR
0.00078194
Loading maneuver chart data...
Computing Atmospheric mass density...

Documentation

Showing up to 5 results
|